RH
75 75 75 75 76 76 77 76 75 74 73 72 71 69 65 62 61 63 67 69 69 69 70 69 68 67 66 67 68 69 70 71 73 75 74 75 77 79 79 77 76 76 76 77 76 74 71 68 65 63 60 52 45 48 53 53 49 47 48 49 50 52 51 52 60 64 57 51 50 48 45 47 49 48 47 49 52 56 57 56 57 59 57 57 59
73 74 75 75 75 75 76 76 75 74 73 72 71 68 67 64 62 62 64 68 69 68 68 69 69 67 66 67 68 69 70 71 73 75 76 77 78 80 81 79 78 77 78 78 76 75 75 71 66 64 64 60 50 46 50 54 54 51 49 50 50 52 53 51 55 62 61 56 53 52 50 50 50 48 49 52 55 57 57 57 59 60 58 56 58
71 72 74 75 74 74 75 75 75 75 74 73 71 69 67 65 63 63 62 64 68 69 67 66 67 67 66 66 67 69 71 71 73 75 77 78 79 80 80 80 78 77 78 79 77 76 76 73 68 65 64 64 59 51 49 53 56 56 53 52 51 52 54 54 54 58 60 58 56 54 53 54 54 51 51 55 56 56 57 58 59 60 57 55 57
70 71 72 73 74 74 74 75 75 74 73 72 70 69 67 65 64 63 62 62 65 69 68 65 64 67 68 66 66 67 69 71 73 75 77 78 79 79 79 79 78 76 76 77 78 77 76 73 70 68 66 65 64 60 55 54 55 57 57 55 54 54 54 56 55 56 58 59 58 56 54 54 54 52 52 57 58 56 56 58 60 61 59 56 56
70 71 71 72 74 74 74 75 74 74 73 71 70 68 67 66 64 63 62 62 63 66 69 68 64 65 67 68 67 65 67 70 73 75 76 77 78 78 78 78 78 77 76 75 76 77 76 75 72 70 68 67 66 64 62 59 56 57 59 57 57 56 55 57 58 57 58 59 59 58 57 55 54 53 53 56 58 58 58 59 60 62 62 59 58
69 70 70 71 73 73 74 74 73 73 72 69 68 67 65 65 65 63 62 62 63 64 67 69 66 63 64 66 68 67 66 68 71 74 75 76 78 78 78 77 76 77 77 76 76 76 75 75 74 71 70 69 68 67 65 64 61 59 59 59 58 58 57 58 60 59 60 60 58 58 59 57 55 54 54 55 57 58 60 62 63 64 64 62 62
68 68 69 70 71 72 73 73 71 71 70 68 66 64 63 63 62 64 63 62 63 64 65 67 67 64 62 63 66 68 68 68 70 73 75 75 77 78 78 77 76 76 77 77 77 76 75 75 75 73 71 69 68 68 67 66 65 62 60 59 60 60 60 60 62 63 63 64 63 61 61 59 56 55 54 53 55 55 57 64 68 68 67 66 66
67 68 68 68 69 70 70 70 69 69 68 66 64 62 61 60 59 61 63 62 62 63 64 66 67 66 65 62 64 67 70 70 70 72 74 74 75 76 77 77 77 77 77 77 77 77 76 76 75 74 72 69 68 68 67 67 67 66 63 61 61 63 62 62 65 67 67 67 67 66 65 63 60 58 57 56 59 60 59 62 65 66 67 68 68
64 65 67 67 68 68 68 68 67 67 66 65 64 61 60 59 58 58 60 62 62 61 62 64 66 68 67 65 64 66 69 72 71 71 72 73 73 74 75 76 77 77 78 77 77 76 76 76 76 74 72 70 69 67 66 66 65 66 64 63 63 64 64 64 67 71 72 71 70 69 70 70 66 64 63 62 62 61 61 62 63 63 65 67 67
61 62 64 66 66 66 66 66 65 65 66 65 64 62 60 60 59 58 58 60 61 60 60 62 65 67 68 68 67 66 68 70 71 71 70 70 71 72 74 75 76 76 77 78 78 77 77 77 76 75 73 71 70 69 67 66 64 63 61 60 61 63 66 67 67 71 74 75 73 71 72 74 70 66 66 63 60 60 62 65 66 65 68 72 73
57 59 61 63 64 65 64 64 64 64 65 65 65 63 61 60 59 58 58 59 61 61 61 61 63 65 66 68 69 69 69 68 69 71 70 69 69 70 72 75 75 76 77 77 77 77 77 77 76 76 76 74 73 70 68 68 66 64 62 59 57 58 62 66 68 70 73 76 74 72 73 73 70 67 66 64 63 63 63 64 67 69 74 80 82
53 56 57 60 63 64 64 63 63 64 63 64 65 64 62 60 59 58 58 59 61 63 62 62 62 63 64 65 67 69 69 68 68 69 70 70 70 69 71 73 75 77 77 77 77 76 76 77 76 76 76 75 74 72 71 69 68 67 65 63 59 56 56 59 62 65 69 74 75 74 72 70 69 68 67 65 65 65 65 66 67 69 73 78 80
48 53 54 57 61 63 64 64 63 64 63 62 62 63 62 60 59 58 58 59 61 63 63 63 62 62 63 64 65 66 67 68 68 68 68 69 70 70 70 71 73 75 76 77 77 76 76 76 76 76 75 75 74 74 73 71 70 69 68 66 64 61 57 57 57 56 59 65 71 73 71 69 68 66 63 63 65 68 70 71 69 70 74 76 74
44 50 52 54 59 62 63 64 63 64 64 62 62 62 63 61 59 58 58 58 60 63 64 64 63 62 62 63 64 65 65 66 67 68 68 68 69 70 70 70 71 72 74 75 76 76 76 75 76 75 75 74 74 74 73 74 73 72 71 70 68 65 61 59 58 57 55 57 62 65 64 65 65 61 58 60 63 66 70 71 70 72 74 71 68
42 47 50 51 56 61 63 63 63 63 63 63 63 62 63 63 60 59 58 58 59 60 62 63 63 62 61 61 63 64 64 65 66 67 68 68 69 70 70 71 71 71 71 72 74 75 75 74 75 74 74 74 74 74 74 74 75 75 75 73 72 69 66 62 60 60 59 58 57 57 57 59 60 59 58 60 61 62 63 63 64 67 71 72 73
41 45 49 50 53 58 62 63 63 63 63 64 64 63 63 63 62 60 59 58 58 58 59 61 62 62 62 61 61 62 63 65 66 67 69 69 70 71 71 72 72 72 71 70 70 72 73 73 74 73 73 73 73 73 73 74 76 78 78 77 75 72 70 66 63 61 60 59 58 56 55 56 58 58 58 59 62 62 62 64 66 71 77 81 83
42 44 49 50 52 56 60 62 62 63 64 65 65 64 63 62 62 62 61 59 59 59 58 59 60 61 62 62 61 61 61 64 66 68 70 71 72 73 73 74 74 74 72 71 70 70 71 72 73 73 73 72 72 73 73 73 75 77 79 79 78 76 73 70 67 64 61 60 59 57 57 58 59 59 58 59 61 62 66 71 74 77 82 85 86
42 44 48 50 51 54 58 61 62 63 64 65 66 65 64 64 63 63 63 61 59 58 58 58 58 59 60 62 62 62 61 61 63 66 69 71 73 74 75 76 77 77 76 75 73 72 71 72 72 73 73 73 72 72 72 73 74 76 78 79 79 78 76 73 71 70 67 64 62 61 61 61 61 61 60 61 62 63 66 71 73 76 80 83 83
41 42 45 48 50 53 57 60 61 63 64 65 65 66 66 65 64 64 64 63 61 59 58 58 58 58 59 60 61 62 63 62 61 63 65 68 72 74 76 79 81 81 80 79 77 75 74 73 72 73 73 73 72 72 72 72 73 73 75 78 79 78 76 74 73 72 71 70 68 66 66 65 64 64 63 63 64 64 64 66 68 72 77 78 77
38 38 41 45 49 52 55 59 62 63 64 65 65 66 67 67 67 66 66 66 64 62 59 58 59 58 58 59 59 61 62 63 63 63 63 65 67 70 75 80 83 83 82 81 80 79 77 76 74 74 73 74 74 74 73 72 72 72 74 76 77 76 74 74 73 72 73 74 71 69 68 68 68 67 66 66 66 65 64 64 65 68 70 73 74
37 36 39 43 48 52 55 59 61 62 64 65 66 67 68 68 69 68 68 68 67 66 63 61 60 60 60 59 60 59 60 62 63 64 64 64 65 66 70 75 80 83 83 82 82 82 80 79 77 75 74 74 74 75 76 74 73 73 73 73 73 72 72 73 72 71 72 74 73 73 72 71 70 70 70 70 68 67 66 65 64 64 64 67 72
38 37 40 43 47 51 54 58 61 63 64 66 67 69 70 70 70 69 70 71 70 69 67 64 62 62 62 62 61 61 61 61 62 64 65 66 66 65 66 68 72 77 81 83 83 83 81 80 78 76 76 75 75 75 76 76 76 75 74 72 70 71 73 74 74 73 73 73 75 75 75 74 73 72 71 71 71 69 68 66 64 64 63 63 65
41 39 41 45 49 52 54 58 61 64 67 67 69 72 73 72 71 71 71 72 72 71 70 69 67 65 63 63 63 64 63 63 63 64 65 65 66 66 66 66 67 71 76 80 80 81 81 80 79 78 77 77 77 76 76 76 76 77 76 75 74 79 85 86 83 78 75 74 76 76 76 76 74 73 72 72 72 71 70 68 66 66 66 65 63
48 45 44 47 51 53 56 59 62 65 68 69 70 73 74 74 74 73 72 73 74 74 73 72 71 70 67 66 65 65 66 65 65 65 65 65 65 65 66 66 66 68 71 74 75 75 77 78 77 77 77 76 76 77 77 78 77 77 77 76 79 90 98 97 92 86 80 78 77 76 76 75 74 73 72 71 71 71 70 70 70 69 69 69 66
55 52 49 50 53 56 58 60 63 66 68 70 72 74 75 75 75 75 75 74 75 77 77 77 76 75 73 70 67 66 66 65 65 65 65 65 65 65 65 65 66 67 69 71 72 74 75 75 74 74 75 75 74 75 76 78 78 78 77 75 81 93 100 98 97 95 88 81 78 77 76 76 74 73 71 69 70 70 71 73 74 74 72 70 67
61 57 53 52 54 58 61 63 65 67 69 70 72 73 74 75 76 77 77 77 77 78 78 79 79 78 76 74 71 67 64 64 65 67 70 71 71 70 69 69 68 70 72 72 73 76 77 78 78 78 77 77 77 78 77 77 78 79 79 76 81 91 96 96 100 100 93 86 81 78 76 75 74 74 73 72 71 70 72 76 78 77 74 69 64
63 61 58 55 56 60 64 66 68 69 70 71 73 74 75 75 76 77 78 79 80 80 79 79 79 79 78 76 74 71 68 69 72 75 76 76 76 75 74 73 72 72 73 73 74 76 78 79 81 83 83 83 83 83 83 83 83 83 83 81 83 90 93 93 94 96 94 89 84 80 78 78 80 81 79 76 75 75 75 77 80 78 73 66 60
63 63 61 59 58 59 63 68 71 71 72 73 73 75 76 76 76 77 77 78 79 79 79 78 76 75 75 75 73 74 77 78 79 78 77 77 78 78 78 77 77 76 76 77 77 77 79 79 80 82 83 84 85 85 85 85 85 85 86 85 85 88 93 94 94 95 95 92 87 87 89 90 90 89 84 80 80 81 80 80 80 78 72 66 63
63 62 61 60 59 58 61 67 71 71 71 71 73 75 76 75 75 75 76 76 77 77 77 77 76 75 75 76 76 78 83 83 80 78 78 77 77 78 77 77 78 79 80 83 83 82 81 81 81 82 82 83 85 86 86 86 87 87 88 87 87 89 94 97 98 98 97 95 93 95 98 97 94 91 88 85 83 82 82 82 81 78 73 68 67
66 65 62 62 62 60 60 64 68 69 68 68 73 78 78 76 76 77 77 75 73 72 74 76 77 76 75 76 78 79 80 79 76 74 74 72 70 70 69 68 68 69 71 75 80 84 88 88 87 86 86 88 90 90 89 89 89 90 90 89 90 92 94 96 96 96 97 97 97 99 100 98 94 91 89 88 87 85 84 82 80 79 76 72 71
75 72 69 69 68 66 66 66 68 70 69 69 73 78 80 80 78 74 73 72 70 69 70 72 74 74 73 74 74 72 68 67 65 63 62 61 60 59 58 57 56 55 56 59 65 76 87 93 95 94 93 94 94 93 92 92 91 92 92 91 91 92 94 95 95 95 96 98 99 100 101 99 95 92 89 87 87 88 88 85 83 82 79 75 76
75 73 72 74 72 71 72 72 69 70 72 74 75 75 78 84 85 78 71 69 68 66 65 64 62 61 60 60 59 58 56 56 56 56 55 55 54 53 53 53 53 53 55 58 64 73 83 90 96 98 98 98 98 97 96 96 95 95 95 94 94 93 93 94 95 95 97 99 99 100 100 98 96 95 92 89 88 89 90 89 87 85 82 80 80
73 73 75 76 75 74 74 72 70 68 70 75 79 77 77 86 93 89 81 74 71 70 69 66 61 56 54 54 55 55 57 59 59 59 60 60 60 59 58 57 58 61 66 71 78 84 87 90 95 97 98 98 99 98 98 98 98 98 99 98 98 97 96 96 96 96 98 99 99 100 100 99 98 97 95 92 90 90 91 91 88 86 86 85 84
75 77 77 77 77 76 73 70 69 66 65 68 72 73 75 84 92 92 87 83 80 77 74 70 64 61 61 64 66 66 67 66 66 68 70 70 70 70 69 69 72 76 80 83 86 89 90 92 94 94 95 97 97 98 99 99 98 99 100 99 99 99 99 99 98 99 99 99 99 100 99 97 97 97 96 94 93 93 92 91 90 89 88 87 87
76 76 75 75 76 76 73 69 66 63 61 63 64 62 65 74 81 85 86 88 87 83 77 71 67 67 68 69 70 70 69 70 71 72 74 76 76 74 74 77 81 84 85 87 88 89 90 92 92 92 94 96 97 98 100 100 99 100 100 99 99 99 98 98 99 99 100 99 99 99 99 98 99 98 96 95 94 94 92 91 90 89 88 87 88
76 76 73 74 75 74 71 69 65 62 60 60 60 58 59 63 68 73 81 87 88 85 79 72 69 71 71 71 71 71 70 72 73 73 75 79 78 73 74 80 84 85 87 88 89 90 92 93 94 95 96 98 99 100 100 100 100 100 100 100 100 99 98 98 99 98 99 100 100 99 99 99 98 98 98 96 94 93 93 92 91 90 89 88 89
73 74 73 73 71 68 65 63 62 62 61 60 60 61 62 63 63 65 71 77 78 76 73 68 66 69 72 73 74 74 73 73 74 74 75 78 77 74 77 83 86 87 88 89 90 92 93 94 96 98 98 99 100 100 100 100 100 100 100 100 100 100 100 100 100 100 100 100 100 100 100 100 99 99 98 97 95 94 92 92 92 93 91 88 87
70 70 71 73 71 68 66 64 63 62 61 61 61 61 63 65 65 65 69 72 72 72 72 71 69 70 73 76 76 75 74 72 72 74 76 77 76 77 81 84 85 85 87 88 90 94 97 98 99 100 100 100 100 99 99 100 100 99 100 100 100 100 100 99 99 100 100 99 99 98 98 99 100 98 93 90 92 95 95 93 92 90 87 83 81
71 72 72 73 73 72 72 72 71 69 66 66 65 64 64 66 68 70 74 78 78 76 75 75 74 73 73 75 75 75 74 71 71 75 77 78 79 82 84 85 82 79 80 84 88 93 99 100 99 99 99 98 98 99 99 99 99 99 100 100 100 100 100 100 100 100 98 96 94 93 94 96 99 96 88 81 81 84 87 88 87 85 84 83 79
74 75 74 73 74 76 76 77 78 78 78 77 76 74 73 73 73 74 77 80 80 78 76 76 76 75 75 75 75 75 75 73 72 74 76 77 80 83 86 85 80 77 79 82 84 88 96 99 98 96 95 94 96 99 100 99 99 100 98 98 99 99 98 97 97 94 91 87 84 83 82 83 86 89 88 83 78 76 78 82 83 81 80 79 77
73 74 74 73 74 76 78 80 82 82 82 83 82 80 80 80 79 79 79 80 80 80 79 79 80 79 79 79 78 77 78 76 73 72 74 76 78 80 84 84 80 77 82 84 80 82 91 97 96 94 93 93 95 97 98 97 98 99 97 94 92 91 91 91 91 90 90 89 86 83 81 78 77 82 88 88 86 84 82 82 79 75 72 72 74
73 73 73 74 75 76 78 80 82 82 82 83 83 83 83 83 83 84 85 84 85 85 84 84 84 83 81 80 79 79 80 78 74 70 70 74 76 77 81 83 81 79 82 84 81 82 89 95 96 94 94 94 94 95 96 97 97 98 97 94 91 91 91 92 93 93 92 90 88 87 87 85 83 83 82 81 81 82 82 80 77 75 75 77 79
73 73 73 73 75 76 78 80 81 83 84 85 85 86 86 87 88 89 90 90 91 91 90 90 89 86 82 80 80 82 82 82 79 77 76 78 81 81 82 83 84 84 83 85 86 88 91 95 98 96 92 91 92 93 94 95 94 94 95 95 95 94 93 92 92 91 89 87 86 83 81 80 81 81 80 77 76 79 81 81 81 80 80 81 80
72 72 72 73 74 76 78 80 82 84 86 86 87 88 89 90 91 91 92 93 94 95 95 95 94 92 89 87 88 88 88 87 89 89 88 89 90 90 89 89 89 89 87 87 90 92 93 96 99 97 91 88 88 90 91 91 91 91 92 92 94 94 92 89 86 82 78 78 78 76 76 77 77 77 76 73 73 76 79 80 80 80 79 78 76
70 71 72 74 75 77 79 80 82 84 85 85 86 88 89 91 93 94 95 96 96 97 98 98 97 97 97 96 96 96 95 95 97 97 97 97 97 97 97 96 96 96 94 94 96 96 93 94 97 97 93 89 87 88 89 90 90 89 88 87 88 90 88 84 80 73 66 63 63 65 70 74 75 73 72 71 72 76 77 77 77 75 71 68 66
68 70 73 74 76 77 79 80 82 84 84 85 86 87 89 91 94 95 97 98 98 99 99 99 99 99 99 100 100 100 99 99 100 99 99 100 100 100 100 100 99 99 99 99 100 98 95 94 96 98 97 94 90 87 87 88 90 89 84 80 81 83 80 77 73 67 59 56 58 62 66 69 71 73 74 73 73 73 74 73 72 67 60 56 56
66 68 70 73 74 76 79 80 82 83 84 85 86 87 88 90 92 94 96 98 99 99 99 100 100 100 100 100 100 100 100 100 100 100 100 100 100 100 100 100 99 100 100 99 100 100 98 98 99 99 99 98 95 91 87 86 86 86 84 79 78 78 76 73 71 65 58 55 57 63 67 68 68 70 74 74 72 71 70 68 63 57 51 48 48
64 65 66 68 70 73 76 78 80 81 82 82 83 84 85 87 88 89 91 94 96 97 98 98 98 99 100 100 100 100 100 100 99 99 100 100 100 100 100 100 99 100 100 99 100 99 98 98 99 99 98 98 98 97 95 89 85 84 84 83 82 78 74 71 69 68 65 62 59 61 66 68 67 68 70 70 67 64 60 56 51 48 46 44 43
62 63 64 65 67 69 72 74 76 76 77 78 79 80 81 82 83 83 84 86 88 92 93 93 93 94 97 99 100 99 98 98 98 99 100 100 100 100 100 100 99 99 99 99 99 97 94 92 93 94 94 95 97 99 99 95 89 86 85 86 85 82 77 73 70 68 67 66 64 64 67 69 67 67 66 62 56 52 49 47 46 45 44 43 42
60 61 62 62 63 65 67 68 70 70 70 71 73 74 75 76 76 76 76 76 76 78 80 79 80 83 88 93 96 96 93 93 95 97 98 99 100 100 100 99 96 95 95 96 96 94 92 90 90 89 88 89 92 95 96 94 92 89 87 86 86 84 79 76 75 72 68 66 66 67 67 64 61 60 57 53 49 46 46 46 45 43 42 42 42
58 59 59 60 60 61 62 63 65 66 66 66 67 67 68 68 68 68 68 68 67 68 69 68 67 69 72 78 83 86 86 87 90 92 94 96 98 98 99 98 95 92 91 91 91 91 91 91 91 89 87 86 87 90 90 88 87 87 85 83 83 82 79 79 79 77 71 66 65 65 62 59 56 53 51 49 47 45 44 44 43 42 42 41 41
Wind_Speed
40 39 39 39 39 39 40 42 42 41 41 40 39 38 38 37 37 35 34 34 34 33 33 34 35 35 34 34 35 34 34 34 33 33 33 33 32 31 31 30 30 29 28 28 27 26 26 26 25 25 24 23 24 23 19 16 18 20 19 19 19 18 18 17 13 10 11 12 10 10 15 21 22 20 19 18 17 17 16 16 17 18 18 18 16
41 40 39 40 41 40 40 42 42 41 40 39 39 39 38 38 38 37 35 34 35 35 34 34 35 36 36 35 35 35 35 35 34 34 34 34 34 32 32 31 32 31 30 30 30 29 28 29 28 27 26 25 25 25 23 20 19 21 22 22 22 22 21 21 18 15 14 14 12 12 16 20 21 20 19 19 18 18 17 17 19 19 20 19 18
42 41 40 40 41 40 39 40 40 40 39 38 39 39 39 39 38 37 37 36 35 36 37 35 34 35 37 36 35 35 36 36 36 35 36 36 35 35 34 33 33 33 33 32 32 31 31 30 31 30 28 28 28 28 27 24 22 22 24 25 25 25 25 24 22 19 18 18 16 16 18 20 21 21 21 20 20 19 19 19 19 19 19 19 19
41 42 41 41 40 40 39 39 40 40 39 39 39 39 38 38 38 38 38 37 36 36 37 37 35 34 36 37 37 37 36 37 37 37 37 37 37 37 36 35 35 35 35 35 34 34 34 33 33 32 31 31 31 31 30 30 28 26 26 27 28 28 27 27 26 24 22 20 20 20 20 19 21 22 22 22 22 21 20 20 20 19 19 19 20
40 41 42 41 41 41 40 39 39 40 41 40 39 39 38 37 38 38 38 37 37 36 36 37 38 36 36 38 39 39 39 38 38 38 38 38 38 38 38 37 36 36 37 37 36 36 36 36 36 35 34 33 33 34 34 34 33 31 30 29 30 30 30 29 29 28 25 24 23 22 20 19 20 22 23 23 23 22 21 21 21 20 19 19 19
38 40 41 41 41 41 41 40 40 41 42 41 40 39 38 37 37 38 39 38 37 37 37 37 39 39 39 39 39 41 41 40 40 40 39 39 39 39 39 38 38 38 38 38 38 38 38 38 38 37 37 37 36 36 36 36 36 35 34 33 32 32 31 31 30 30 28 27 26 24 23 22 22 24 25 25 24 24 23 22 21 21 20 20 20
38 39 40 40 40 41 42 42 42 42 43 42 41 40 39 39 38 38 39 39 38 37 38 38 39 41 42 41 40 41 41 41 41 41 40 39 39 39 39 40 39 39 39 39 39 39 39 39 39 39 39 40 39 39 38 37 37 37 37 36 34 33 33 32 31 31 30 28 26 25 25 25 25 25 26 25 24 24 24 23 22 22 23 22 21
37 38 38 39 41 42 43 43 43 43 42 42 41 41 40 40 39 38 39 40 40 39 38 39 40 41 42 43 42 41 41 42 41 41 41 40 40 40 40 40 40 40 39 40 40 40 41 41 41 41 41 42 42 41 40 39 37 37 38 36 34 34 34 33 31 31 31 29 28 27 26 25 26 25 24 25 25 26 28 27 25 25 25 24 23
37 37 38 39 41 42 42 42 43 42 41 41 42 42 41 41 40 39 39 40 41 40 39 39 39 40 41 42 42 42 41 42 42 42 43 42 41 41 41 41 41 40 40 40 40 41 42 42 42 43 43 44 44 43 42 41 40 39 39 37 36 36 35 34 32 30 30 28 27 27 25 25 27 26 25 28 31 31 30 29 27 27 26 26 25
37 38 38 39 40 41 42 41 41 41 41 41 42 42 41 41 41 40 40 40 40 40 40 39 39 40 40 41 42 42 42 42 43 44 45 44 43 42 41 42 42 42 41 40 40 41 42 42 43 44 45 45 45 45 44 44 44 43 42 41 40 39 36 34 33 32 31 28 28 28 26 26 29 30 30 33 34 32 30 29 28 26 24 23 23
38 39 38 39 39 40 40 40 40 41 42 41 42 42 42 41 41 40 40 39 40 40 40 40 39 39 40 41 42 42 43 43 44 45 47 46 45 43 41 41 42 42 41 40 40 41 41 42 42 43 44 45 45 46 46 46 46 45 44 43 43 43 40 37 35 34 33 30 30 30 29 29 32 34 33 32 33 32 32 31 29 26 23 20 18
36 39 38 38 39 40 39 40 39 40 41 41 41 42 42 41 40 40 40 39 39 39 40 41 41 40 40 41 42 43 44 45 45 46 47 48 47 45 42 40 40 40 41 41 41 40 40 41 41 41 42 44 46 46 46 47 48 47 46 46 45 46 45 43 40 39 37 33 31 32 33 33 33 35 35 34 33 33 33 31 30 29 27 24 21
33 36 38 38 40 41 40 40 40 39 40 41 41 41 41 40 40 40 40 40 39 39 41 42 42 41 41 42 43 44 44 45 47 47 47 48 48 47 44 41 40 40 40 41 41 40 39 39 40 41 41 42 44 45 46 47 48 48 48 48 47 47 47 47 46 44 43 40 36 36 38 37 35 37 40 38 35 34 32 32 33 32 30 29 29
31 33 37 38 39 41 41 40 40 40 40 40 39 39 39 39 40 40 39 39 39 39 41 42 42 43 42 42 43 44 44 45 46 47 48 48 48 49 48 44 41 40 40 41 40 40 40 39 39 40 40 41 42 44 44 45 46 48 49 49 49 49 48 49 49 47 46 45 42 42 43 42 41 42 42 41 39 37 36 35 36 35 34 34 34
30 31 34 37 38 39 41 41 40 40 39 39 38 38 37 38 39 39 37 38 39 40 40 41 42 43 43 42 41 42 43 44 44 46 47 47 47 49 49 46 42 41 40 40 40 40 40 40 40 40 40 41 41 42 43 44 44 46 48 49 49 49 50 52 52 51 50 49 48 47 46 46 45 44 42 42 43 42 40 40 40 38 36 33 30
31 30 32 36 37 38 40 40 39 39 38 37 38 37 37 37 37 37 36 36 38 39 39 39 40 41 42 41 40 41 41 41 41 43 44 45 46 47 48 47 44 42 41 40 40 40 40 40 41 40 41 42 41 41 43 43 43 43 45 46 47 48 51 54 54 54 54 52 51 50 48 46 45 44 43 43 43 43 40 37 36 34 30 26 24
29 29 30 34 36 37 38 39 38 38 37 37 37 37 37 37 36 36 35 34 34 35 37 37 37 38 39 40 41 41 39 37 37 39 40 42 43 45 46 46 44 44 43 40 39 39 39 40 41 41 41 41 41 42 42 42 43 43 43 43 43 45 51 52 51 53 55 55 53 52 50 47 44 44 45 44 43 43 39 35 34 34 30 23 20
27 27 28 32 35 36 36 38 38 37 37 37 36 35 35 35 35 34 34 34 33 33 34 34 35 36 36 38 39 40 38 35 33 33 35 37 40 43 44 44 44 44 42 39 39 39 39 40 40 40 41 41 40 41 41 42 44 44 43 41 40 45 50 48 44 47 51 53 54 52 50 48 45 45 45 45 44 44 43 40 38 37 32 25 22
26 27 27 29 33 35 36 36 37 37 36 36 35 34 34 33 33 33 33 33 33 32 31 31 32 34 35 36 36 37 36 35 33 32 32 32 36 40 42 42 42 41 38 37 38 39 40 40 39 40 41 41 41 41 41 43 45 46 44 40 40 47 50 45 43 44 45 47 51 51 49 48 47 46 46 46 45 46 47 46 42 40 35 30 28
29 28 27 27 30 34 35 35 36 36 35 34 33 33 32 31 31 32 32 31 31 31 31 31 31 32 33 34 34 35 34 33 33 33 32 31 32 36 40 41 40 36 35 36 37 38 39 39 39 40 41 41 41 41 42 44 46 47 44 41 44 50 46 41 43 45 41 42 47 50 50 48 46 46 46 47 46 47 48 47 44 43 39 33 31
28 29 28 28 29 32 34 34 35 34 34 33 31 31 31 30 30 30 30 29 29 30 31 31 30 30 31 32 33 33 33 32 32 32 33 32 32 33 38 41 39 35 35 36 37 37 37 37 39 41 41 41 41 41 42 45 47 48 48 49 52 51 42 37 41 43 41 40 43 45 47 46 45 45 45 46 47 48 47 46 44 44 42 37 33
26 30 29 28 29 31 32 33 33 32 32 31 30 29 29 29 29 29 28 28 28 28 29 29 29 28 28 29 31 32 32 32 31 31 32 33 34 35 37 40 39 36 36 36 36 37 37 38 40 41 40 41 40 40 42 44 46 49 52 55 56 51 42 37 36 38 41 42 41 41 43 44 44 44 44 44 45 46 45 44 44 44 44 43 40
22 29 29 28 28 30 31 31 30 30 29 30 29 27 27 27 28 28 28 27 27 27 27 28 28 28 27 27 27 29 31 32 32 32 33 33 35 38 40 40 40 39 38 37 38 39 39 39 40 40 39 40 40 41 42 43 46 49 53 56 55 47 37 32 32 36 41 43 41 41 43 44 44 44 45 45 44 44 44 45 46 45 43 43 42
13 24 27 27 27 28 29 29 29 28 28 28 28 26 25 26 27 27 28 27 26 25 25 26 26 26 26 26 24 23 24 26 29 32 33 35 36 38 39 40 41 42 42 42 42 41 39 38 39 39 41 42 43 44 44 45 47 49 51 54 51 40 32 34 39 41 41 40 41 43 44 45 45 46 47 48 45 44 45 46 45 44 42 41 41
7 18 22 23 24 25 27 27 27 28 27 27 27 26 25 25 24 25 26 26 25 23 22 23 24 23 23 24 24 22 20 19 20 21 25 29 33 35 37 39 41 43 44 44 43 40 38 38 40 41 42 43 45 46 47 47 48 49 50 52 48 40 38 43 44 41 40 41 42 43 44 46 48 49 50 49 47 45 45 43 41 40 39 39 39
5 13 17 19 20 22 25 25 25 26 27 27 27 26 26 25 23 23 23 24 24 23 21 21 22 21 21 22 23 24 24 22 17 14 15 18 22 27 31 35 39 42 44 44 42 38 35 34 36 37 39 41 42 44 46 48 49 48 49 51 48 42 43 45 43 39 42 44 43 43 46 46 45 44 44 44 46 46 44 40 38 37 38 38 36
6 10 13 15 16 19 21 23 23 24 25 26 25 25 25 25 23 22 22 22 21 21 20 19 19 18 19 19 20 22 22 19 14 9 7 7 9 11 15 20 27 33 38 42 43 42 39 37 34 33 34 35 36 38 41 43 43 43 44 47 46 44 45 48 48 47 47 47 47 48 47 42 36 35 37 40 43 43 42 40 38 37 38 37 35
5 8 11 12 13 14 15 19 23 23 23 24 23 22 22 22 21 20 20 20 20 20 20 19 18 17 15 15 16 16 13 11 8 5 3 3 4 5 6 8 11 16 21 25 28 31 34 36 36 36 36 36 36 38 39 41 41 40 40 41 42 43 44 46 48 50 49 49 49 44 35 28 28 32 36 38 39 39 39 40 39 39 39 38 35
3 5 8 10 11 11 10 14 20 22 21 21 20 17 17 19 20 17 15 16 17 18 18 17 15 14 11 8 8 10 9 8 5 3 2 1 3 5 7 8 9 10 12 13 14 17 21 25 28 30 32 33 34 36 38 40 40 40 40 40 41 41 40 40 43 47 49 49 47 38 26 22 27 31 34 35 37 40 42 43 42 41 40 38 35
2 4 5 6 10 11 9 11 17 20 21 20 16 13 11 12 14 13 10 9 10 11 12 12 11 11 11 9 8 8 9 7 3 1 2 3 5 7 8 10 10 11 12 13 14 15 17 19 22 24 26 27 28 31 34 35 35 36 38 39 41 41 40 41 44 47 49 49 46 38 29 28 30 33 37 39 40 43 46 48 46 44 42 40 36
7 9 9 8 10 11 9 10 13 15 18 19 18 20 19 17 15 15 13 11 11 11 12 12 11 9 9 9 8 7 6 5 3 3 3 3 4 6 7 9 10 10 10 11 13 14 16 18 20 22 23 25 26 29 31 32 33 34 35 36 39 40 41 44 46 46 46 46 40 32 30 32 35 39 43 44 44 44 46 48 47 45 44 42 38
12 15 14 14 16 15 14 14 17 16 15 17 22 25 26 26 25 23 21 19 18 17 17 15 13 11 10 9 9 8 8 7 7 6 6 5 5 5 5 5 6 7 8 7 6 7 10 13 15 17 20 22 25 27 29 30 31 33 33 33 36 38 40 43 45 43 42 42 37 32 33 36 38 40 42 44 45 44 43 45 45 45 44 41 36
15 16 16 16 18 19 19 18 19 20 20 20 22 23 23 24 26 26 26 25 23 23 21 19 17 15 15 15 14 14 13 12 12 11 10 9 8 8 8 8 10 11 13 13 12 10 10 11 13 15 17 20 22 25 27 29 31 32 32 33 34 37 39 41 41 38 38 40 38 36 36 38 39 40 41 44 45 44 44 45 44 43 40 36 34
19 18 18 19 19 19 20 20 19 20 22 22 21 20 21 22 25 25 23 22 22 22 22 21 18 17 18 19 18 17 16 15 14 14 13 13 12 12 11 12 13 16 17 17 15 15 15 15 17 18 20 21 23 24 26 27 29 30 32 33 33 35 37 38 37 35 35 37 38 38 39 41 43 43 43 44 44 42 40 41 41 41 39 37 34
20 19 17 17 18 19 20 20 19 20 21 21 21 20 19 21 22 22 20 19 19 20 20 20 18 17 18 18 17 16 16 15 15 15 15 14 14 13 14 15 16 18 19 18 18 17 17 18 20 22 24 25 26 27 28 28 29 30 31 32 32 33 34 34 33 33 33 34 35 37 40 40 40 39 39 40 41 39 39 41 43 42 40 37 34
20 20 17 15 16 18 19 19 19 20 21 21 20 19 19 21 22 22 23 22 21 20 18 18 18 17 17 17 17 16 15 14 14 14 15 15 15 16 18 18 18 18 18 17 17 17 18 19 20 23 25 26 27 28 29 30 30 31 31 32 33 33 33 33 32 32 32 31 31 32 34 34 35 38 39 41 43 43 41 41 41 40 38 36 34
19 18 14 13 15 18 19 19 20 21 21 20 19 19 19 20 21 22 23 23 22 20 18 17 17 18 18 16 16 14 14 14 14 14 15 15 15 16 16 15 14 14 14 15 16 17 19 20 21 22 24 26 27 28 29 30 30 31 31 31 31 32 32 32 32 32 32 32 32 32 33 34 35 35 32 31 35 39 38 34 30 28 31 34 34
20 16 12 12 14 17 18 18 18 18 19 20 19 19 19 19 18 18 19 19 20 19 19 18 19 19 17 15 13 13 13 13 14 14 14 13 13 12 11 10 10 11 12 14 16 17 19 21 21 21 22 23 24 26 28 29 30 30 30 31 31 31 31 31 32 32 31 30 29 28 27 29 31 30 21 10 9 16 25 32 37 36 34 35 35
23 21 20 20 22 23 23 23 21 20 21 21 20 20 20 19 19 19 18 18 19 19 18 18 18 17 15 13 12 12 12 11 11 10 8 7 7 7 6 7 9 11 13 15 16 17 18 19 19 19 20 21 23 24 25 27 28 28 28 27 26 25 23 22 22 20 16 12 8 6 5 6 9 21 28 27 26 23 20 25 35 39 35 32 33
23 24 25 26 26 27 27 27 26 25 24 24 23 23 22 21 21 22 21 19 19 17 16 15 15 14 14 13 11 10 8 6 5 4 2 3 5 5 4 7 10 12 14 15 17 18 18 18 18 19 20 21 22 22 22 22 22 20 18 16 13 11 9 8 6 5 8 13 16 20 23 23 22 23 30 37 41 40 35 31 31 32 31 29 29
22 23 25 26 27 27 28 28 27 26 26 26 26 26 25 23 23 23 22 19 17 15 14 12 12 13 14 14 14 12 8 5 4 3 2 3 7 7 6 8 10 11 12 14 16 17 18 17 17 18 19 19 19 19 19 18 16 14 11 9 8 11 13 15 17 20 22 24 26 29 32 35 36 35 33 32 34 36 36 34 32 30 28 26 26
23 24 25 25 26 27 26 26 26 26 27 26 25 25 25 24 24 23 23 21 19 17 16 15 14 14 15 15 16 16 13 11 10 7 4 5 10 11 9 9 9 9 10 13 15 17 17 16 16 16 16 16 17 17 16 14 12 11 9 9 11 15 18 19 21 24 26 29 30 31 32 34 36 38 36 34 31 29 29 30 30 29 28 26 26
25 25 26 26 26 26 25 24 25 26 26 25 25 24 24 24 23 23 23 22 21 20 19 18 17 17 17 16 17 19 20 19 19 18 14 13 14 15 13 12 10 9 9 11 13 14 15 15 15 14 13 13 14 14 12 10 9 8 9 11 13 17 20 21 22 25 28 31 32 32 33 34 35 35 34 31 28 26 25 25 25 25 25 24 23
25 25 26 26 27 27 26 25 25 24 23 24 25 24 23 23 22 22 22 22 21 20 20 19 18 18 18 18 20 21 22 22 22 22 21 20 19 18 17 16 13 11 11 12 11 11 12 13 13 13 12 11 11 11 9 8 7 8 11 13 15 17 19 22 24 27 29 29 29 29 30 31 32 32 31 27 24 23 23 22 20 20 21 22 21
25 25 26 26 25 25 25 25 24 23 23 23 23 22 21 21 21 21 20 20 19 19 20 20 20 19 19 20 21 22 21 21 21 20 19 19 19 19 19 18 16 14 13 13 11 11 11 12 11 10 10 10 9 8 8 7 8 9 11 13 14 15 17 22 26 27 26 24 22 23 25 27 29 30 29 26 24 23 22 21 19 18 20 23 25
25 25 25 26 25 25 24 23 23 22 22 21 21 20 20 20 20 20 20 20 19 19 20 20 20 20 20 21 22 22 20 20 20 20 19 19 19 19 20 20 18 17 16 16 14 14 14 12 10 9 8 7 7 6 6 6 7 8 10 11 12 13 16 21 24 23 21 20 20 21 23 24 25 26 27 26 25 24 22 20 19 20 21 24 26
27 26 24 24 24 24 24 23 22 22 21 21 21 20 20 20 19 19 20 20 20 20 21 22 22 21 21 21 21 20 19 19 19 20 21 21 21 20 21 22 21 20 19 19 19 19 17 14 11 9 7 6 5 5 4 3 5 7 8 9 10 11 14 17 19 18 17 17 18 19 19 19 21 22 22 21 21 21 21 21 22 23 23 24 25
28 27 26 25 24 23 22 22 22 21 21 21 21 21 21 20 20 19 19 20 21 21 22 24 26 25 23 22 22 21 20 20 21 21 22 23 23 23 23 24 23 21 20 20 20 20 19 17 13 11 8 6 4 3 2 1 2 5 7 7 7 8 10 12 14 15 14 14 14 16 16 17 19 20 18 17 19 22 23 23 23 24 23 22 23
27 27 28 27 26 24 22 22 22 21 21 21 21 21 21 21 21 21 20 20 21 21 22 26 29 29 27 26 25 24 25 26 26 26 26 26 26 25 26 26 25 24 23 23 22 21 21 20 18 15 12 9 6 3 2 0 2 5 6 5 5 7 9 9 9 11 12 14 15 15 15 15 17 19 19 19 20 22 23 23 22 22 22 21 21
27 26 26 26 25 24 24 24 24 23 23 23 23 22 22 22 21 21 22 22 23 23 24 27 29 30 29 28 27 27 30 31 30 29 29 29 28 28 28 28 29 30 29 28 26 25 24 24 23 20 16 12 9 5 3 2 2 4 6 6 6 8 11 12 10 9 11 13 15 14 14 15 16 18 21 21 20 19 20 21 21 22 22 21 19
27 26 25 24 23 23 23 24 24 23 23 23 23 23 24 23 23 23 23 24 24 24 25 27 28 29 30 30 29 29 32 33 33 32 31 31 30 30 30 29 30 32 33 33 32 31 29 28 27 25 21 17 13 9 6 6 7 6 6 8 9 9 12 14 13 12 13 14 15 15 16 17 17 18 20 21 19 17 18 20 20 20 20 19 18
Wind_Direction
203 205 206 208 208 207 206 205 205 206 206 206 207 207 207 207 208 209 208 208 208 208 210 212 212 213 213 213 213 213 213 212 213 215 215 217 218 217 217 215 214 217 217 219 221 219 219 225 227 226 226 228 228 229 232 229 219 216 216 212 210 214 217 214 213 214 217 224 228 215 207 206 208 217 226 226 223 226 232 233 230 233 241 246 247
203 205 206 208 209 209 208 207 207 207 207 207 208 209 209 209 210 210 210 210 209 209 210 211 212 212 212 213 213 212 212 212 212 214 214 215 216 217 216 215 215 216 216 217 218 218 219 223 227 227 226 227 229 227 227 228 225 220 219 219 217 216 218 218 217 216 216 219 218 205 201 208 214 217 220 222 221 223 227 227 229 236 243 246 247
202 205 206 208 210 211 210 209 208 208 208 208 208 209 210 210 210 210 210 211 211 211 211 211 212 211 211 211 212 211 212 212 213 214 215 215 215 216 216 216 216 216 216 217 217 216 217 220 224 226 224 224 226 227 225 226 227 225 221 221 220 218 218 219 218 215 217 219 216 205 202 209 217 218 217 220 224 226 228 229 232 238 243 243 243
202 203 206 208 210 211 211 210 209 209 209 209 210 210 210 211 210 211 211 211 211 212 212 212 212 212 211 211 211 211 212 213 213 214 215 216 216 216 216 216 217 218 217 218 217 215 216 218 221 223 223 222 223 224 225 225 226 227 225 223 222 220 218 218 219 218 217 217 216 213 213 214 216 217 214 216 222 228 232 233 234 239 243 242 244
200 203 205 207 208 210 211 210 209 209 209 210 210 210 210 211 211 211 211 211 211 212 212 211 212 213 213 212 212 212 213 214 214 214 216 217 217 217 217 216 217 219 220 220 218 216 216 217 219 220 220 220 220 221 222 222 224 225 226 225 223 222 220 218 220 220 219 218 217 217 221 220 215 214 213 213 216 223 231 236 237 238 239 239 242
201 203 205 206 207 208 209 209 209 209 210 210 210 210 210 210 211 210 211 211 211 212 212 212 212 213 214 215 214 214 214 215 215 216 216 216 217 218 218 218 218 219 221 222 221 219 218 218 219 219 218 218 219 220 220 219 220 221 223 225 224 222 220 219 219 218 218 220 220 219 220 219 214 211 212 213 215 218 223 230 236 237 235 234 235
201 203 205 206 207 208 208 209 209 209 210 209 209 210 210 210 210 210 211 211 211 212 212 213 213 214 215 216 216 216 216 215 216 217 216 216 216 217 218 219 219 220 221 223 223 222 221 220 220 219 219 219 219 219 219 218 218 219 220 222 222 220 219 219 218 216 215 216 218 218 218 217 215 214 215 217 221 224 223 222 225 229 230 230 230
200 202 204 205 207 209 208 209 209 209 209 209 208 209 210 210 210 211 211 211 211 212 213 213 214 215 216 217 218 218 217 217 216 217 217 216 216 217 218 219 220 221 222 223 224 224 224 223 222 221 222 222 222 221 220 219 218 219 220 220 219 218 217 217 216 214 213 213 214 215 216 216 216 218 217 213 214 220 222 220 222 225 225 225 228
199 201 203 205 207 209 209 209 209 209 208 208 208 209 209 210 210 211 211 211 212 213 214 215 215 215 217 218 219 219 218 218 218 217 217 217 217 217 218 219 220 221 222 223 224 224 225 224 224 224 224 224 224 224 223 222 220 220 220 218 218 217 216 215 214 212 212 212 214 213 213 214 214 213 210 208 211 216 219 219 223 228 228 228 232
198 200 203 205 206 208 209 209 208 208 208 208 208 208 209 209 209 210 211 212 212 213 214 215 216 216 217 218 219 220 220 220 220 219 219 218 217 217 218 219 221 221 222 222 223 224 225 225 226 227 226 226 226 226 225 225 224 225 224 221 218 216 214 212 212 211 210 211 212 211 211 215 215 212 210 212 214 216 215 215 219 225 228 230 235
198 200 202 204 205 206 207 208 208 208 208 208 208 208 208 208 209 209 210 211 212 212 213 214 216 217 217 218 219 220 221 222 222 222 222 221 219 219 219 220 221 222 223 223 223 224 225 226 227 228 228 228 227 227 228 228 228 228 228 226 224 220 216 213 211 211 211 211 212 211 211 215 217 215 215 215 214 213 214 215 215 217 216 218 225
200 201 202 201 202 204 205 206 207 208 208 208 208 208 208 208 208 209 209 210 211 211 212 214 215 217 218 219 220 222 223 224 223 223 223 223 222 221 221 222 223 223 224 224 225 225 225 226 227 228 229 229 228 228 228 229 230 230 230 230 229 227 223 219 216 214 212 213 213 212 214 217 217 216 216 215 214 214 214 214 215 215 214 214 218
202 201 202 200 200 201 203 204 206 208 208 209 209 209 208 208 209 209 209 209 209 210 212 214 215 216 217 219 221 223 224 225 225 225 224 224 224 223 224 224 225 226 226 227 227 227 227 227 227 228 229 230 229 228 228 228 229 230 231 231 231 230 228 225 224 222 219 217 215 216 217 217 217 217 217 216 214 213 211 212 215 216 214 216 221
206 202 201 201 200 199 201 202 204 206 208 209 209 209 209 209 210 210 210 209 209 211 213 214 215 217 218 219 222 224 225 226 226 226 225 225 225 225 226 227 228 229 230 230 229 229 229 228 228 229 229 230 229 228 228 228 228 228 229 229 230 231 230 228 226 226 225 223 221 222 223 220 220 221 220 217 215 213 210 210 214 215 216 220 226
208 205 202 202 201 199 199 201 202 204 206 207 208 209 210 210 211 211 210 210 211 212 213 215 217 218 219 220 222 225 227 227 227 227 226 226 226 226 227 228 230 232 233 233 233 232 232 231 231 231 231 231 230 229 228 227 227 227 227 228 229 230 230 230 227 226 226 226 226 228 228 226 225 225 222 218 217 218 217 216 217 217 218 220 224
208 206 202 201 201 199 199 199 201 203 203 204 206 207 209 211 212 212 212 213 214 215 216 217 219 220 221 222 224 227 229 229 228 228 228 227 227 227 227 229 231 234 236 237 236 236 236 235 234 234 234 234 233 231 230 228 226 226 227 227 228 229 231 232 231 228 228 228 229 231 232 230 228 227 225 222 220 219 219 219 218 215 212 210 211
208 206 203 201 201 200 199 199 200 201 201 202 205 206 207 210 211 211 212 214 216 218 219 220 222 223 224 224 226 229 231 230 230 230 229 227 226 226 226 228 232 235 237 238 239 240 240 238 237 237 237 237 235 234 232 230 228 227 227 227 228 230 233 233 233 232 231 230 231 232 233 233 230 229 228 225 223 219 214 212 211 207 203 201 202
211 208 204 202 201 201 200 200 199 200 201 202 204 205 207 209 210 211 212 214 217 220 222 224 225 227 228 228 229 232 233 233 233 232 231 229 227 226 225 227 231 234 237 239 241 242 242 242 241 240 240 240 239 237 234 231 229 228 228 227 227 230 233 232 231 233 232 231 232 233 233 233 232 230 229 227 224 220 213 211 209 204 201 201 199
211 211 209 204 202 201 201 201 200 200 201 202 203 204 205 207 209 210 212 215 218 221 223 226 228 229 231 232 233 235 236 236 236 236 235 232 229 227 225 225 229 232 235 238 241 243 244 244 244 243 243 243 241 240 237 234 231 230 230 227 228 232 234 230 229 232 231 228 229 230 231 232 231 230 229 227 224 221 218 215 210 203 201 203 198
210 212 212 207 203 201 200 201 201 201 201 202 202 203 204 205 206 208 211 214 217 220 222 225 228 230 232 234 235 237 238 238 237 238 238 236 233 230 226 225 228 231 233 237 240 242 244 245 246 246 246 246 244 242 241 238 235 234 231 229 231 235 235 231 230 232 231 228 228 228 229 229 228 228 227 225 223 221 220 217 212 206 205 204 197
212 210 210 206 202 200 200 200 200 201 201 201 201 202 203 203 204 206 210 213 216 219 221 224 228 231 232 234 236 238 239 239 239 238 239 238 237 236 232 229 230 230 233 236 239 241 243 245 247 248 247 248 247 245 244 243 240 237 234 234 236 238 237 233 232 233 233 233 231 229 229 229 227 226 225 222 221 220 218 216 213 210 209 207 201
213 207 205 203 201 199 199 199 199 199 199 198 198 199 200 201 203 206 208 211 214 218 221 224 228 232 234 235 236 237 238 240 241 241 240 240 240 239 238 238 236 234 234 237 239 241 243 244 247 248 249 249 249 247 246 246 245 242 240 240 241 240 237 235 234 233 232 232 231 228 227 226 225 224 224 222 220 218 216 216 215 214 214 213 209
211 204 200 198 198 196 196 197 195 194 195 195 195 196 197 199 203 206 209 211 214 217 220 223 227 232 235 237 237 237 237 238 240 241 242 241 241 241 241 242 241 237 234 237 241 243 244 245 247 249 250 251 251 250 249 248 248 247 247 247 245 240 237 237 237 235 234 231 228 227 225 224 223 222 222 222 220 217 216 217 217 215 215 215 214
209 202 197 193 193 192 192 192 192 191 191 192 193 194 195 199 203 206 209 210 212 215 218 220 223 229 234 237 238 237 236 236 238 240 241 241 241 241 241 242 242 239 237 239 242 244 245 246 248 249 250 251 253 253 252 250 249 249 251 251 247 239 236 237 235 236 237 234 228 227 225 222 220 220 220 220 219 218 218 218 218 216 214 212 213
199 197 192 187 186 187 186 186 187 188 188 190 192 194 196 199 203 205 207 208 211 213 215 217 219 223 227 232 236 237 238 241 244 245 244 244 243 242 241 241 241 239 237 239 243 245 246 249 250 251 252 252 253 254 253 253 252 251 252 253 247 237 234 237 235 235 238 238 233 231 228 225 222 221 220 218 217 217 217 216 214 212 209 209 209
155 184 184 180 178 179 181 182 182 185 188 190 192 196 198 201 204 206 206 208 210 213 214 215 217 219 222 226 230 233 238 243 248 248 247 248 248 245 244 243 242 241 239 239 242 244 246 249 251 253 254 254 254 253 253 255 255 254 253 254 248 237 232 234 233 233 237 240 239 236 234 230 226 222 219 216 214 214 213 210 206 203 200 198 197
101 150 162 168 169 169 174 180 181 182 186 188 192 196 199 202 204 206 206 206 208 210 212 213 212 213 217 221 224 229 232 232 230 231 239 254 264 262 255 252 250 249 248 248 248 248 250 252 253 255 257 258 258 258 258 259 259 258 257 255 251 242 235 234 233 234 236 238 239 239 237 233 226 220 217 215 214 212 209 205 200 197 194 191 186
79 117 136 148 156 159 166 176 181 182 183 185 188 192 195 200 203 205 208 209 207 206 208 210 214 216 217 219 221 220 215 205 199 201 216 252 286 297 290 278 268 265 264 264 262 261 261 261 262 262 264 265 265 266 266 266 266 266 264 262 259 252 243 238 237 237 239 240 241 241 239 232 222 215 213 214 214 210 206 204 200 196 191 186 182
74 111 128 137 153 161 162 171 177 176 175 177 180 183 190 200 202 200 202 207 209 209 207 205 208 210 203 197 197 186 165 152 166 188 205 275 307 315 312 308 304 300 296 292 287 281 276 273 271 270 269 269 269 268 268 267 267 267 265 263 262 257 249 243 240 240 242 242 242 241 234 222 215 211 209 211 212 208 204 202 199 195 190 185 184
107 129 137 146 165 173 172 169 172 173 172 168 159 147 156 180 186 176 166 172 186 194 188 175 169 174 167 150 142 145 138 132 136 121 337 318 314 313 309 308 306 301 296 291 286 282 278 274 272 271 269 268 267 267 267 267 267 266 264 262 260 257 252 247 244 243 243 244 244 238 225 210 205 205 206 209 209 207 203 200 198 193 188 185 184
93 98 102 112 134 151 160 153 147 157 169 164 140 118 109 109 116 119 116 118 128 134 136 133 132 139 144 134 122 115 107 98 91 65 26 354 335 322 314 314 312 307 302 292 279 275 275 274 273 274 272 270 268 268 269 269 268 266 265 263 260 257 253 250 248 247 246 247 248 239 220 209 207 207 207 207 206 204 200 197 195 192 189 187 185
91 88 90 95 102 111 120 119 114 119 136 142 133 121 109 99 96 98 100 102 104 103 102 103 104 104 106 109 112 110 100 90 84 77 67 53 36 16 1 358 355 351 349 343 323 304 298 292 287 286 284 281 280 279 279 279 277 275 273 269 265 262 258 256 255 252 249 249 249 237 222 216 213 212 210 207 204 202 197 193 192 190 189 188 184
81 77 80 85 89 94 99 100 101 104 108 115 124 127 121 110 103 101 99 97 94 90 84 79 80 86 93 97 100 101 99 92 84 78 72 67 60 51 42 37 34 27 22 19 13 2 343 323 308 300 295 290 289 288 287 286 286 285 283 279 275 272 270 269 268 263 254 250 246 237 227 220 216 213 210 206 202 199 194 191 189 187 186 185 181
75 72 75 79 81 85 90 90 91 97 102 106 112 119 124 126 123 119 113 103 93 86 77 71 73 85 94 96 96 95 92 84 76 71 65 59 56 50 42 38 33 25 19 15 8 357 346 334 323 315 308 301 297 294 291 289 288 288 287 286 285 283 283 281 279 273 263 254 247 239 232 225 218 213 208 203 200 197 193 188 186 185 184 182 178
71 70 72 79 82 86 89 89 90 94 100 104 107 110 118 125 127 126 124 115 102 89 76 68 72 83 91 92 91 90 85 77 68 65 60 52 46 42 38 32 24 15 10 7 360 349 339 329 322 317 312 307 302 298 294 291 289 287 286 287 287 288 289 288 286 282 274 263 252 244 238 233 226 217 208 200 195 193 190 187 185 184 181 178 173
66 67 68 77 86 87 87 87 89 92 94 97 99 102 107 110 109 108 110 110 105 95 82 73 75 81 85 87 86 82 74 66 60 59 55 46 37 35 33 26 15 6 2 358 351 342 334 326 322 319 315 310 307 304 299 294 291 288 286 286 286 286 287 286 285 284 281 274 267 258 251 243 232 221 212 203 196 192 190 187 184 180 175 167 160
64 67 72 83 92 92 89 88 90 91 92 92 92 92 96 103 105 102 103 105 102 95 88 80 76 76 76 79 82 80 71 61 56 55 50 39 30 31 31 22 9 359 353 350 348 343 337 333 330 326 322 319 317 314 309 304 299 294 290 289 287 287 288 287 285 283 280 277 274 269 261 252 238 227 219 210 199 189 181 171 162 156 151 145 139
63 68 79 89 90 87 85 83 86 91 92 90 87 83 83 91 100 103 106 108 104 97 89 78 70 67 66 67 73 76 68 57 52 52 47 34 25 26 28 20 10 3 356 354 352 347 341 338 335 332 330 329 327 324 321 317 312 306 301 297 295 294 294 294 292 288 283 279 275 270 264 254 233 214 200 190 177 168 161 152 142 134 133 134 133
65 69 76 80 76 72 70 68 70 76 79 76 74 71 69 73 80 85 93 102 104 98 89 78 70 65 61 61 67 71 66 54 47 47 45 33 23 23 23 18 15 13 9 4 358 351 345 342 340 340 340 339 336 334 331 327 321 316 312 307 304 304 305 304 300 293 288 286 281 276 304 299 215 176 151 126 106 98 105 121 128 130 133 137 142
68 69 72 74 72 69 67 65 64 64 64 63 63 63 60 62 70 76 83 96 105 103 92 84 74 62 52 46 45 46 48 46 38 34 34 29 24 20 18 19 17 14 10 5 358 352 350 349 348 348 347 346 345 345 342 336 330 326 325 325 328 342 356 3 18 69 94 91 93 95 89 80 83 102 115 118 121 122 123 123 125 128 133 139 147
74 71 70 71 71 69 68 66 64 64 64 63 62 61 58 58 62 67 72 81 90 93 85 76 66 54 43 32 23 14 359 333 320 309 295 23 30 27 18 11 11 10 7 360 354 352 352 352 353 353 351 349 349 348 348 349 349 350 356 9 39 63 74 82 90 95 94 91 90 93 98 102 104 103 102 107 115 123 128 129 130 133 140 149 161
82 77 73 71 71 70 69 67 66 65 63 61 60 59 58 57 56 57 59 60 62 65 62 55 50 47 44 38 31 25 19 11 4 2 13 37 36 32 23 8 3 4 0 353 351 352 354 354 356 357 357 355 354 353 355 2 8 15 32 59 80 87 90 91 92 93 94 95 97 98 100 105 108 109 110 113 117 120 126 133 138 145 154 164 173
84 80 77 74 71 70 69 68 67 63 60 59 58 57 57 55 52 52 53 51 50 50 49 44 40 40 42 42 38 33 31 32 31 31 36 40 38 33 27 18 12 4 355 351 353 355 355 356 359 1 1 1 1 3 10 18 26 46 72 85 91 95 97 97 96 97 99 101 103 106 108 110 111 112 114 118 124 130 136 142 148 156 163 169 176
85 82 79 76 73 71 69 68 67 64 60 59 59 57 56 54 51 49 48 47 44 43 41 37 34 34 36 38 38 33 30 31 31 31 33 36 35 32 28 27 26 19 7 3 4 3 359 357 360 3 5 6 9 17 32 46 64 90 105 106 103 104 108 110 110 109 108 107 107 109 113 116 118 120 121 124 133 142 148 152 157 165 174 179 184
88 85 81 77 73 70 69 67 67 65 62 61 59 58 56 54 50 48 47 44 41 39 39 37 37 36 35 35 37 35 31 28 27 27 28 29 27 26 27 28 29 27 20 16 14 10 5 4 4 5 8 11 15 28 49 69 87 107 120 122 119 117 122 126 124 120 116 114 115 120 123 126 129 132 134 141 152 161 164 166 169 177 184 187 186
86 85 84 82 78 74 72 69 67 66 64 62 61 59 57 55 52 50 49 47 44 42 40 39 40 39 37 36 37 38 36 33 31 30 30 30 29 29 30 31 33 35 33 32 30 24 18 15 14 13 13 14 15 22 43 69 86 103 118 127 129 130 133 135 133 130 126 124 127 132 135 138 141 146 149 154 160 166 172 179 185 188 187 185 181
81 81 83 84 83 81 79 75 73 72 70 68 66 64 61 59 56 53 51 50 50 48 45 43 43 43 40 38 38 37 37 36 34 31 32 35 39 40 41 40 38 38 39 41 40 37 32 30 27 23 19 15 9 7 17 49 82 100 112 124 134 140 143 146 147 144 138 134 137 143 147 148 151 153 154 159 166 174 181 186 186 182 177 177 178
76 75 75 76 78 79 79 78 78 77 74 72 71 69 67 65 62 58 54 53 53 50 48 47 48 48 46 43 42 40 39 39 38 36 36 39 42 46 48 46 40 36 39 44 44 41 38 36 34 32 29 24 16 9 3 23 126 128 124 126 139 152 158 161 162 159 154 150 151 153 155 157 160 163 167 173 178 180 179 177 174 172 170 171 175
76 75 75 74 74 75 77 79 79 78 77 75 73 71 70 70 68 65 61 59 56 53 51 51 51 51 51 50 48 45 44 43 41 39 40 41 43 47 51 49 44 40 41 43 43 43 42 39 38 39 39 36 33 33 22 312 187 172 160 151 165 182 183 176 172 172 170 165 161 161 165 170 174 179 185 185 179 175 174 171 169 169 169 168 169
77 79 80 81 81 80 81 81 82 82 81 80 78 77 76 75 73 70 68 65 63 60 58 57 55 54 53 53 52 50 49 47 44 41 40 42 43 46 49 49 48 47 46 44 42 43 44 42 40 41 42 43 43 43 31 353 304 253 224 211 209 204 195 188 190 196 188 175 170 175 185 189 185 183 182 180 174 172 174 175 173 171 170 168 167
74 76 79 83 85 87 86 85 84 85 85 84 84 83 82 80 78 76 74 73 71 67 65 62 60 57 55 54 53 53 52 49 45 42 41 41 42 44 46 47 47 48 48 47 46 45 45 44 43 41 41 43 44 42 34 17 3 335 269 240 236 230 216 212 220 225 213 196 189 194 201 200 194 186 181 177 172 168 168 171 174 176 177 178 181